[[{"header":{"parameterUnit":"m.s-1","parameterCategory":1,"la1":30.2991,"la2":30.254,"lo1":-89.0895,"lo2":-89.0444,"dy":0.0017,"dx":0.0017,"nx":28,"ny":28,"refTime":"2023-09-17T21:00:00:Z","depth":0,"parameterNumber":2,"parameterNumberName":"U-component_of_WINDS"},"data":[0,0,0,0,0,0,0,0,0,0,0,0,0,0,0,0,0,0,0,0,0,0,0,0,0,0,0,0,0,0,0,0,0,0,0,0,0,0,0,0,0,0,0,0,0,0,0,0,0,0,0,0,0,0,0,0,0,0,0.3945,0.3945,0,0.3998,0.3999,0.4,0.4037,0.4037,0.4038,0.4038,0.4093,0.4094,0.4095,0,0,0,0,0,0,0,0,0,0,0,0,0,0.3876,0.3877,0.3945,0.3945,0.3946,0.3998,0.3999,0.4,0.4037,0.4037,0.4038,0.4038,0.4093,0.4094,0.4096,0,0,0,0,0,0,0,0,0,0,0,0,0,0.3915,0.3877,0.3945,0.3971,0.3974,0.3998,0.3999,0.4,0.4037,0.4037,0.4038,0.4038,0.4092,0.4094,0.4096,0.4098,0,0,0.4101,0.4102,0,0,0,0,0,0,0,0,0.3913,0.3918,0.3967,0.3969,0.3973,0.4011,0.3995,0.4033,0.4037,0.4013,0.4038,0.4038,0.4066,0.407,0.4079,0.4101,0.4103,0.4101,0.4103,0.4103,0.4104,0,0,0,0,0,0,0,0.391,0.3916,0.3966,0.3967,0.3971,0.398,0.3987,0.4002,0.4036,0.4015,0.4018,0.4024,0.4067,0.4077,0.408,0.4104,0.4101,0.4103,0.4104,0.4105,0.413,0.413,0,0,0,0,0,0,0.3903,0.3913,0.3964,0.3968,0.3943,0.3981,0.3988,0.3999,0.4036,0.4042,0.4023,0.4025,0.4074,0.4078,0.4082,0.4087,0.4103,0.4105,0.4106,0.4131,0.413,0.413,0,0,0,0,0,0,0.3902,0.3907,0.3962,0.3941,0.3949,0.3982,0.3993,0.3999,0.4009,0.4042,0.4049,0.4027,0.4074,0.408,0.4094,0.4089,0.4106,0.4107,0.4131,0.4131,0.413,0.4096,0,0,0,0,0,0,0.3899,0.3907,0.3908,0.3941,0.395,0.3972,0.3993,0.4,0.4012,0.4015,0.4047,0.4053,0.4075,0.4091,0.4096,0.4092,0.4109,0.4132,0.4131,0.413,0.4098,0.4095,0.4092,0,0,0,0,0,0.3897,0.3896,0.3907,0.3913,0.3952,0.3972,0.3977,0.4002,0.4011,0.4013,0.4034,0.4052,0.409,0.4092,0.4098,0.4095,0.4132,0.4131,0.413,0.4099,0.4095,0.4092,0,0,0,0,0,0,0.3861,0.3901,0.3914,0.3924,0.3944,0.3978,0.398,0.3997,0.4015,0.4018,0.4048,0.4055,0.4066,0.4082,0.4084,0.4099,0.4113,0.4113,0.4088,0.4084,0.4081,0.4076,0.411,0,0,0,0,0,0.3855,0.3868,0.3902,0.3907,0.3917,0.3947,0.3957,0.3974,0.3997,0.4006,0.4028,0.4049,0.4066,0.4076,0.4093,0.4101,0.4108,0.4102,0.4099,0.4096,0.4095,0.41,0.4098,0.4127,0.4127,0.4127,0,0,0.3841,0.3864,0.387,0.3901,0.3919,0.3931,0.3954,0.3966,0.3976,0.4008,0.4022,0.4039,0.4065,0.4076,0.4082,0.4089,0.4089,0.4095,0.4093,0.4094,0.4099,0.4096,0.4094,0.4126,0.4126,0.4126,0,0,0.3822,0.3841,0.3848,0.3865,0.3892,0.3912,0.3914,0.3946,0.3958,0.3973,0.3997,0.4009,0.4037,0.4054,0.4067,0.4055,0.4072,0.406,0.4044,0.4048,0.4046,0.4044,0.4039,0.4036,0.406,0.406,0.406,0,0.3801,0.3821,0.3849,0.386,0.3872,0.3902,0.3908,0.3924,0.3955,0.3963,0.3972,0.4008,0.4027,0.4042,0.4039,0.4049,0.4051,0.4056,0.4044,0.4042,0.4041,0.4036,0.4034,0.4058,0.4058,0.4059,0.4059,0,0.3794,0.3808,0.381,0.3839,0.3852,0.3861,0.389,0.39,0.3917,0.3936,0.3951,0.3975,0.3998,0.4003,0.402,0.402,0.4024,0.4038,0.4052,0.4036,0.4032,0.403,0.4056,0.4056,0.4057,0.4057,0,0,0.3752,0.3797,0.3797,0.3811,0.3843,0.3854,0.3865,0.3887,0.3894,0.3915,0.3924,0.3948,0.3961,0.3975,0.3994,0.3998,0.3986,0.4012,0.4013,0.4005,0.3987,0.3975,0.3973,0.3998,0.3998,0.3998,0.3985,0,0.3737,0.3757,0.3783,0.3794,0.3806,0.3835,0.3844,0.3865,0.3884,0.3898,0.3919,0.3934,0.3951,0.3959,0.3965,0.3986,0.3983,0.3988,0.4007,0.4007,0.3997,0.3971,0.3959,0.3945,0.3984,0.3983,0.3983,0,0.3722,0.3741,0.3753,0.3784,0.3791,0.3798,0.382,0.3833,0.3858,0.3871,0.3887,0.3908,0.3921,0.3935,0.3952,0.3955,0.3965,0.3977,0.3977,0.3978,0.3993,0.397,0.3941,0.3938,0.3981,0.3982,0.3982,0,0.3688,0.3717,0.3728,0.3739,0.3776,0.3781,0.3797,0.3822,0.3833,0.3853,0.3861,0.3882,0.3893,0.3909,0.3935,0.3943,0.395,0.3966,0.396,0.3959,0.3959,0.3958,0.3929,0.3968,0.3968,0.3968,0.3968,0,0.3667,0.3673,0.3714,0.372,0.3728,0.3758,0.3765,0.3783,0.3806,0.3816,0.3843,0.3853,0.3887,0.3901,0.3922,0.3933,0.3938,0.3949,0.3954,0.3945,0.3944,0.395,0.3951,0.3967,0.3967,0.3967,0.3967,0,0.363,0.3658,0.3671,0.3706,0.3715,0.3719,0.3748,0.3756,0.3777,0.379,0.3795,0.3827,0.3845,0.3873,0.3899,0.3913,0.3919,0.3929,0.3911,0.3913,0.3906,0.3905,0.3878,0.3876,0.3917,0.3917,0.3917,0,0.3614,0.3619,0.3655,0.3664,0.3678,0.3693,0.3705,0.3735,0.3747,0.3775,0.3779,0.3799,0.3816,0.3843,0.3869,0.3889,0.3898,0.3887,0.3901,0.3892,0.3896,0.3895,0.3895,0.3883,0.3883,0.3882,0.3882,0,0.3582,0.3596,0.3612,0.3633,0.3646,0.3665,0.3684,0.369,0.3725,0.3737,0.3755,0.3768,0.3795,0.3813,0.3837,0.3854,0.3873,0.3878,0.3877,0.3867,0.3856,0.3861,0.39,0.3878,0.3878,0.3878,0.3879,0.3879,0.3554,0.356,0.3585,0.3603,0.3621,0.3638,0.3647,0.3669,0.3685,0.3709,0.3726,0.3743,0.3768,0.3802,0.3818,0.3831,0.384,0.3839,0.3839,0.3838,0.3834,0.3855,0.3836,0.3836,0.3836,0.3836,0.3837,0,0.3522,0.354,0.3556,0.3582,0.3596,0.3614,0.3637,0.3647,0.3661,0.3683,0.37,0.3721,0.3739,0.3767,0.3788,0.3794,0.3803,0.3798,0.3797,0.38,0.3826,0.3823,0.379,0.379,0.379,0.379,0.379,0.379,0.3507,0.3517,0.3534,0.3554,0.3573,0.3589,0.36,0.3617,0.3634,0.3656,0.3672,0.3691,0.3715,0.3738,0.3756,0.3764,0.3769,0.3761,0.3771,0.3794,0.3798,0.3803,0.38,0.3762,0.3762,0.3744,0.3744,0.3744]},{"header":{"parameterUnit":"m.s-1","parameterCategory":1,"la1":30.2991,"la2":30.254,"lo1":-89.0895,"lo2":-89.0444,"dy":0.0017,"dx":0.0017,"nx":28,"ny":28,"refTime":"2023-09-17T21:00:00:Z","depth":0,"parameterNumber":3,"parameterNumberName":"V-component_of_WINDS"},"data":[0,0,0,0,0,0,0,0,0,0,0,0,0,0,0,0,0,0,0,0,0,0,0,0,0,0,0,0,0,0,0,0,0,0,0,0,0,0,0,0,0,0,0,0,0,0,0,0,0,0,0,0,0,0,0,0,0,0,-0.1979,-0.1981,0,-0.211,-0.2112,-0.2113,-0.2275,-0.2278,-0.2281,-0.2283,-0.2415,-0.2416,-0.2417,0,0,0,0,0,0,0,0,0,0,0,0,0,-0.187,-0.1871,-0.1979,-0.1981,-0.1983,-0.211,-0.2112,-0.2114,-0.2275,-0.2278,-0.2281,-0.2284,-0.2414,-0.2416,-0.2417,0,0,0,0,0,0,0,0,0,0,0,0,0,-0.195,-0.1871,-0.1979,-0.2079,-0.2089,-0.211,-0.2112,-0.2114,-0.2274,-0.2278,-0.2282,-0.2286,-0.2414,-0.2416,-0.2417,-0.235,0,0,-0.2422,-0.2423,0,0,0,0,0,0,0,0,-0.1946,-0.1954,-0.2062,-0.2072,-0.2083,-0.2181,-0.2122,-0.2193,-0.2273,-0.2204,-0.2283,-0.2288,-0.2334,-0.2342,-0.2358,-0.2357,-0.2362,-0.2423,-0.2424,-0.2424,-0.2425,0,0,0,0,0,0,0,-0.194,-0.195,-0.2031,-0.2064,-0.2076,-0.2117,-0.2133,-0.2136,-0.2245,-0.221,-0.2222,-0.2236,-0.234,-0.2356,-0.2362,-0.2364,-0.2423,-0.2424,-0.2425,-0.2426,-0.2319,-0.2315,0,0,0,0,0,0,-0.1919,-0.1944,-0.2027,-0.2035,-0.2023,-0.2116,-0.2133,-0.2145,-0.2246,-0.2265,-0.2232,-0.2243,-0.2351,-0.236,-0.2368,-0.2299,-0.2424,-0.2426,-0.2427,-0.2322,-0.2318,-0.2314,0,0,0,0,0,0,-0.1916,-0.1925,-0.2022,-0.1993,-0.2008,-0.2113,-0.2126,-0.2146,-0.2162,-0.2263,-0.2283,-0.2228,-0.2355,-0.2365,-0.2355,-0.2306,-0.2427,-0.2428,-0.2327,-0.2321,-0.2316,-0.2159,0,0,0,0,0,0,-0.1913,-0.1923,-0.1899,-0.1991,-0.2009,-0.2006,-0.2123,-0.2146,-0.2165,-0.218,-0.2264,-0.2282,-0.2359,-0.2351,-0.2356,-0.231,-0.2429,-0.2332,-0.2324,-0.2318,-0.2169,-0.2148,-0.2131,0,0,0,0,0,-0.1908,-0.1848,-0.1896,-0.1906,-0.198,-0.2002,-0.2013,-0.2103,-0.216,-0.2137,-0.2202,-0.2279,-0.231,-0.2349,-0.2356,-0.2309,-0.2335,-0.2326,-0.2318,-0.2177,-0.2152,-0.2131,0,0,0,0,0,0,-0.1745,-0.1862,-0.1917,-0.1885,-0.1933,-0.203,-0.2003,-0.2073,-0.2105,-0.2117,-0.2227,-0.2245,-0.2221,-0.2264,-0.2305,-0.2252,-0.2334,-0.2327,-0.2225,-0.2202,-0.2183,-0.2174,-0.2431,0,0,0,0,0,-0.1706,-0.1714,-0.1815,-0.1777,-0.1799,-0.1896,-0.1909,-0.1974,-0.2028,-0.2049,-0.2113,-0.2162,-0.2184,-0.2195,-0.222,-0.2176,-0.2198,-0.2148,-0.2129,-0.2113,-0.2105,-0.2089,-0.2068,-0.2285,-0.2285,-0.2286,0,0,-0.1624,-0.1689,-0.1687,-0.1746,-0.1791,-0.1798,-0.1912,-0.1913,-0.192,-0.2049,-0.2044,-0.2093,-0.2155,-0.2128,-0.2119,-0.2163,-0.205,-0.2102,-0.2088,-0.209,-0.2078,-0.2057,-0.2038,-0.2279,-0.228,-0.2281,0,0,-0.1479,-0.1528,-0.1503,-0.1546,-0.1614,-0.168,-0.1673,-0.1761,-0.1799,-0.1795,-0.1893,-0.1903,-0.1936,-0.1978,-0.2003,-0.1876,-0.195,-0.1881,-0.1782,-0.1765,-0.1748,-0.1733,-0.1691,-0.1674,-0.1873,-0.1873,-0.1872,0,-0.1369,-0.1383,-0.1481,-0.1478,-0.1502,-0.1621,-0.1598,-0.1635,-0.1705,-0.172,-0.1768,-0.1815,-0.1865,-0.1851,-0.1821,-0.1836,-0.1834,-0.1872,-0.1743,-0.1729,-0.1717,-0.1678,-0.1661,-0.1864,-0.1865,-0.1866,-0.1867,0,-0.1246,-0.1255,-0.1227,-0.1295,-0.1316,-0.1301,-0.1398,-0.1408,-0.1472,-0.1533,-0.1529,-0.1594,-0.1635,-0.1637,-0.1698,-0.1632,-0.1658,-0.1722,-0.1808,-0.1686,-0.1651,-0.1637,-0.1852,-0.1855,-0.1857,-0.186,0,0,-0.1002,-0.1126,-0.1114,-0.1148,-0.1232,-0.124,-0.1233,-0.1275,-0.1282,-0.1327,-0.1326,-0.1352,-0.1414,-0.1443,-0.151,-0.1494,-0.1394,-0.1562,-0.1565,-0.1531,-0.1329,-0.1282,-0.1263,-0.1443,-0.1441,-0.1439,-0.1325,0,-0.0874,-0.0869,-0.0958,-0.0929,-0.094,-0.1054,-0.1048,-0.1099,-0.1156,-0.1174,-0.1237,-0.1256,-0.1334,-0.1353,-0.1342,-0.1408,-0.1356,-0.1418,-0.1444,-0.1444,-0.1427,-0.1244,-0.1193,-0.1083,-0.1312,-0.131,-0.1308,0,-0.0724,-0.0764,-0.0735,-0.0824,-0.0832,-0.0825,-0.0872,-0.0887,-0.0948,-0.0991,-0.1024,-0.1102,-0.1103,-0.1183,-0.1186,-0.1226,-0.1243,-0.1277,-0.1275,-0.1282,-0.1369,-0.1248,-0.1049,-0.1033,-0.1287,-0.1289,-0.129,0,-0.0552,-0.0598,-0.0588,-0.0613,-0.0715,-0.0708,-0.075,-0.0815,-0.0835,-0.0877,-0.0892,-0.0931,-0.0954,-0.0983,-0.1071,-0.112,-0.1065,-0.1151,-0.1102,-0.11,-0.1086,-0.1086,-0.0889,-0.1093,-0.1093,-0.1093,-0.1093,0,-0.0402,-0.038,-0.0513,-0.0506,-0.0487,-0.059,-0.0568,-0.0622,-0.0679,-0.0687,-0.0787,-0.0791,-0.0906,-0.0924,-0.0992,-0.0986,-0.0995,-0.1031,-0.1049,-0.1023,-0.1018,-0.1036,-0.1047,-0.1089,-0.109,-0.1091,-0.1091,0,-0.0206,-0.0293,-0.0291,-0.0388,-0.0412,-0.0394,-0.0478,-0.0477,-0.0542,-0.055,-0.0558,-0.0658,-0.0685,-0.0775,-0.0823,-0.0869,-0.0843,-0.0878,-0.0823,-0.0835,-0.0782,-0.0787,-0.0591,-0.0572,-0.0784,-0.0782,-0.078,0,-0.0105,-0.0092,-0.0189,-0.0202,-0.024,-0.0258,-0.0281,-0.0382,-0.0401,-0.0471,-0.0462,-0.0498,-0.0531,-0.0569,-0.0647,-0.0685,-0.0723,-0.0651,-0.0729,-0.0704,-0.0725,-0.0725,-0.0726,-0.0635,-0.0632,-0.063,-0.0628,0,0.0082,0.0038,0.0009,-0.0034,-0.0058,-0.0098,-0.0143,-0.0147,-0.0261,-0.0277,-0.0307,-0.0333,-0.0384,-0.0418,-0.047,-0.0514,-0.059,-0.0603,-0.0594,-0.0568,-0.0537,-0.0556,-0.0779,-0.0607,-0.0609,-0.061,-0.0612,-0.0612,0.0231,0.0236,0.0168,0.0139,0.0094,0.0054,0.0049,-0.0017,-0.0043,-0.0093,-0.0152,-0.0174,-0.0239,-0.0317,-0.0356,-0.0376,-0.0417,-0.0403,-0.0401,-0.0396,-0.0385,-0.0532,-0.0386,-0.0386,-0.0387,-0.0388,-0.0388,0,0.0411,0.0361,0.0336,0.0274,0.0251,0.0181,0.0127,0.0112,0.0093,0.0039,0.0007,-0.0028,-0.0063,-0.0144,-0.0186,-0.0187,-0.0224,-0.0195,-0.0197,-0.0207,-0.0344,-0.0349,-0.0166,-0.0166,-0.0166,-0.0166,-0.0166,-0.0166,0.0502,0.0505,0.0453,0.0432,0.0382,0.0358,0.0332,0.0294,0.0249,0.0215,0.0185,0.0132,0.0066,0.0017,-0.0018,-0.0042,-0.0054,-0.0014,-0.0049,-0.0176,-0.0197,-0.0217,-0.0222,-0.0015,-0.0015,0.0089,0.009,0.0091]}]]